User: anonymous   Login
Location: Unspecified
(0.0000°N, 0.0000°E)
Time: 21:12:12
(UTC+00:00)
Language:

HO-68 - Orbit

View from above orbital plane
View from above orbital plane
View from above satellite
View from above satellite

Ground track
Ground track

The orbit data is extracted from the following two-line orbital elements,

1 36122U 09072B   16344.47886860 -.00000042  00000-0  73751-6 0  9993
2 36122 100.1228  13.0778 0007022 316.3075  43.7482 13.16337312335663
Epoch (UTC): 09 December 2016 11:29:34
Eccentricity: 0.0007022
inclination: 100.1228°
perigee height: 1193 km
apogee height: 1204 km
right ascension of ascending node: 13.0778°
argument of perigee: 316.3075°
revolutions per day: 13.16337312
mean anomaly at epoch: 43.7482°
orbit number at epoch: 33566

The dashed part of the orbit path shows where the satellite is in the earth's shadow,  

DLR